Portada
METAR-TAF:

METAR-TAF

Aeropuertos :

Aeropuerto Internacional de Kuwait

Ciudad de Kuwait, Kuwait

latitud: 29-13N, longitud: 047-59E, altitud: 55 m

Observación

El informe se hizo hace 51 minutos, a las 19:00 UTC
Viento 8 kt del norte
Temperatura 19°C
Humedad 21%
Presión 1020 hPa
Visibilidad 10 km o más
sin nubes por debajo de 1500 m y sin presencia de cumulonimbus.

METAR: OKBK 181900Z 36008KT CAVOK 19/M04 Q1020 NOSIG

Hora: 22:51 (19:51 UTC)

Pronóstico

El informe se hizo hace 3 horas y 6 minutos, a las 16:45 UTC
Pronóstico válido del 18 a las 18 UTC al 19 a las 24 UTC
Viento 10 kt del norte-noroeste
Visibilidad: 7000 m
Cielo despejado

TAF: OKBK 181645Z 1818/1924 34010KT 7000 SKC

Observaciones y pronósticos meteorológicos de más de 4000 aeropuertos (mensajes METAR y TAF).

Los puntos amarillos y rojos representan las estaciones disponibles.

Ponga el ratón en el punto deseado para ver el nombre de la estación.

Haga clic para ver las observaciones y los pronósticos meteorológicos.

Para cambiar el mapa : haga clic en los botones verdes con una cruz de color negro para hacer un zoom, en el botón verde con un guión para alejar o en las flechas verdes para mapas adyacentes.


METAR-TAF: